SKYSAT-C11

Last updated on Tue Sep 16 2025 00:02:31 GMT+0000 (Coordinated Universal Time)

1 42987U 17068A 25258.13815067 .00026559 00000+0 61340-3 0 9998 2 42987 97.4055 33.8327 0001211 109.4403 250.6975 15.42505009440636
UTC large
Height (km)
Speed (km/s)
/
Latitude / Longitude
Inclination (degrees)
Orbital Period (minutes)
Azimuth
Elevation
Range (km)
Doppler Factor

Next 0 passes for location: London (51.5072 / 0.1276)

Sorry there are no passes over London.